DW5656 Weather Reports


time (UTC)temp
F
wind
direction
speed
knots
gust
knots
rain 1hr
in
rain 24hr
in
rain mn
in
humidity
%
barometer
mb
20260510020910 61 205 0.9 3.5 0.00 0.31 0.00 88 1012.9
20260510015948 61 194 0.9 4.3 0.00 0.31 0.00 88 1013.1
20260510015048 61 178 0.0 6.1 0.00 0.31 0.00 88 1013.2
20260510014148 62 178 0.0 4.3 0.00 0.31 0.00 88 1013.3
20260510013248 62 191 0.9 5.2 0.00 0.31 0.00 88 1013.4
20260510012348 62 217 0.9 6.1 0.00 0.31 0.00 88 1013.3
20260510011448 62 210 0.9 7.0 0.00 0.31 0.00 88 1013.3
20260510010548 62 230 0.0 3.5 0.00 0.31 0.00 88 1013.5
20260510005649 62 225 0.9 5.2 0.00 0.31 0.00 87 1013.6
20260510004748 62 208 0.9 6.1 0.00 0.31 0.00 87 1013.8
20260510003848 62 216 0.9 5.2 0.00 0.31 0.00 87 1013.8
20260510002948 62 215 0.0 4.3 0.00 0.31 0.00 87 1013.8
20260510002048 62 209 0.0 1.7 0.00 0.31 0.00 86 1013.9
20260510001209 62 204 0.9 4.3 0.00 0.31 0.00 86 1013.9
20260510000248 62 209 0.9 5.2 0.00 0.31 0.00 86 1014.0
20260509235348 62 196 0.0 5.2 0.00 0.31 0.00 86 1014.0
20260509234448 62 191 0.9 5.2 0.00 0.31 0.00 86 1014.1
20260509233548 61 180 0.9 7.0 0.00 0.31 0.00 86 1014.1
20260509232709 62 201 0.0 6.1 0.00 0.31 0.00 85 1014.1
20260509231748 62 211 0.9 7.0 0.00 0.31 0.00 85 1014.2
20260509230848 62 204 0.9 6.1 0.00 0.31 0.00 85 1014.2
20260509225948 62 186 0.0 7.8 0.00 0.31 0.00 85 1014.2
20260509225048 62 207 0.0 2.6 0.00 0.31 0.00 85 1014.3
20260509224148 62 186 0.9 0.9 0.00 0.31 0.00 85 1014.2
20260509223248 62 199 0.0 6.1 0.00 0.31 0.00 85 1014.3
20260509222409 62 218 0.0 4.3 0.00 0.31 0.00 86 1014.2
20260509221448 62 219 0.9 5.2 0.00 0.31 0.00 86 1014.3
20260509220548 62 230 0.9 7.0 0.00 0.31 0.00 86 1014.2
20260509215648 62 230 0.9 7.8 0.00 0.31 0.31 85 1014.3
20260509214748 62 227 0.9 6.1 0.00 0.31 0.31 85 1014.2
20260509213909 62 220 0.9 5.2 0.00 0.31 0.31 85 1014.3
20260509212948 62 234 1.7 6.1 0.00 0.31 0.31 86 1014.2
20260509212048 62 232 1.7 6.1 0.00 0.31 0.31 86 1014.1
20260509211147 62 228 0.9 5.2 0.01 0.31 0.31 87 1013.9
20260509210247 62 226 0.9 5.2 0.01 0.31 0.31 87 1013.8
20260509205348 62 217 1.7 5.2 0.01 0.31 0.31 87 1013.7
20260509204448 62 242 1.7 6.1 0.01 0.31 0.31 87 1013.6
20260509203547 62 235 1.7 5.2 0.01 0.31 0.31 86 1013.6
20260509202648 62 247 2.6 8.7 0.01 0.31 0.31 85 1013.5
20260509201747 62 229 2.6 8.7 0.01 0.31 0.31 84 1013.5
20260509200847 62 235 4.3 8.7 0.00 0.30 0.30 83 1013.3
20260509195947 62 234 3.5 8.7 0.00 0.30 0.30 82 1013.2
20260509195108 62 234 3.5 7.8 0.00 0.30 0.30 81 1013.1
20260509194208 62 250 3.5 10.4 0.00 0.30 0.30 80 1013.0
20260509193247 62 239 4.3 10.4 0.00 0.30 0.30 79 1012.6
20260509192347 63 241 5.2 10.4 0.00 0.30 0.30 78 1012.6
20260509191447 63 238 4.3 13.0 0.00 0.30 0.30 77 1012.6
20260509190608 63 236 4.3 12.2 0.00 0.30 0.30 77 1012.5
20260509185708 63 230 5.2 11.3 0.00 0.30 0.30 78 1012.4
20260509184747 63 237 5.2 11.3 0.00 0.30 0.30 80 1012.2
20260509183847 64 239 7.0 12.2 0.00 0.30 0.30 80 1012.1
20260509182947 65 239 7.8 20.9 0.00 0.30 0.30 76 1011.9
20260509182047 66 249 7.8 20.9 0.00 0.30 0.30 71 1011.8
20260509181208 67 248 8.7 17.4 0.00 0.30 0.30 69 1011.6
20260509180247 67 244 8.7 17.4 0.00 0.30 0.30 68 1011.5
20260509175347 67 242 7.8 14.8 0.00 0.30 0.30 68 1011.5
20260509174448 67 230 7.8 17.4 0.00 0.30 0.30 69 1011.5
20260509173609 67 230 7.8 16.5 0.00 0.30 0.30 68 1011.4
20260509172647 67 232 7.8 19.1 0.00 0.30 0.30 70 1011.3
20260509171747 67 229 7.8 19.1 0.00 0.30 0.30 72 1011.2
20260509170847 67 241 9.6 16.5 0.00 0.30 0.30 73 1011.2
20260509165947 68 242 9.6 18.2 0.00 0.30 0.30 68 1011.1
20260509165047 68 249 9.6 19.1 0.00 0.30 0.30 65 1010.9
20260509164147 69 241 8.7 17.4 0.00 0.30 0.30 64 1010.8
20260509163247 68 239 8.7 18.2 0.00 0.30 0.30 65 1010.8
20260509162347 68 236 8.7 21.7 0.00 0.30 0.30 65 1010.7
20260509161447 69 239 7.8 15.6 0.00 0.30 0.30 63 1010.6
20260509160547 69 245 7.0 17.4 0.00 0.30 0.30 62 1010.6
20260509155708 70 243 8.7 18.2 0.00 0.30 0.30 62 1010.5
20260509154747 69 243 8.7 18.2 0.00 0.30 0.30 62 1010.5
20260509153908 69 246 9.6 20.0 0.00 0.30 0.30 64 1010.4
20260509152947 69 239 7.8 17.4 0.00 0.30 0.30 62 1010.4
20260509152047 70 248 10.4 18.2 0.00 0.30 0.30 62 1010.3
20260509151146 69 240 8.7 17.4 0.00 0.30 0.30 62 1010.4
20260509150308 70 240 8.7 20.0 0.00 0.30 0.30 61 1010.3
20260509145346 70 239 7.8 16.5 0.00 0.30 0.30 60 1010.2
20260509144447 70 254 9.6 17.4 0.00 0.30 0.30 60 1010.3
20260509143546 69 239 10.4 19.1 0.00 0.30 0.30 62 1010.2
20260509142646 69 239 8.7 23.5 0.00 0.30 0.30 60 1010.2
20260509141747 70 245 7.0 18.2 0.00 0.30 0.30 62 1010.1
20260509140846 69 237 7.0 16.5 0.00 0.30 0.30 64 1010.0
20260509140007 69 240 8.7 18.2 0.00 0.30 0.30 65 1010.0
20260509135046 69 240 9.6 20.9 0.00 0.30 0.30 65 1010.0
20260509134146 68 246 9.6 16.5 0.00 0.30 0.30 68 1009.9
20260509133246 68 243 8.7 19.1 0.00 0.30 0.30 68 1009.9
20260509132407 67 245 7.0 20.0 0.05 0.30 0.30 73 1009.7
20260509131507 66 240 3.5 15.6 0.06 0.30 0.30 77 1009.7
20260509130547 65 227 2.6 12.2 0.21 0.30 0.30 86 1009.6
20260509125646 63 224 1.7 10.4 0.24 0.30 0.30 88 1009.6
20260509124746 63 226 3.5 11.3 0.24 0.30 0.30 90 1009.8
20260509123846 61 223 5.2 19.1 0.24 0.30 0.30 89 1009.9
20260509122946 60 225 3.5 19.1 0.25 0.30 0.30 89 1009.9
20260509122046 59 229 5.2 11.3 0.21 0.25 0.25 88 1009.7
20260509121146 60 260 7.0 19.1 0.16 0.20 0.20 85 1009.7
20260509120246 63 263 3.5 23.5 0.02 0.06 0.07 82 1010.0
20260509115346 63 245 4.3 13.0 0.02 0.06 0.06 86 1009.3
20260509114446 62 251 7.0 14.8 0.02 0.06 0.06 85 1009.3
20260509113546 62 261 7.8 21.7 0.02 0.06 0.06 82 1009.2
20260509112646 65 229 6.1 21.7 0.00 0.04 0.04 78 1009.3
20260509111746 65 201 7.8 15.6 0.00 0.04 0.04 80 1008.5
20260509110846 65 202 8.7 19.1 0.00 0.04 0.04 79 1009.0
20260509105946 65 198 7.8 20.9 0.00 0.04 0.04 78 1009.0
20260509105046 66 196 7.0 20.0 0.00 0.04 0.04 76 1009.0
20260509104146 66 205 8.7 15.6 0.00 0.04 0.04 74 1009.0
20260509103246 67 202 7.8 26.1 0.00 0.04 0.04 73 1009.1
20260509102346 67 200 5.2 19.1 0.00 0.04 0.04 75 1009.0
20260509101446 67 213 6.1 14.8 0.01 0.04 0.04 76 1008.8
20260509100546 66 209 6.1 19.1 0.02 0.04 0.04 79 1008.8
20260509095646 65 202 5.2 19.1 0.02 0.04 0.04 81 1008.6
20260509094746 64 203 7.0 17.4 0.02 0.04 0.04 83 1008.6
20260509093907 64 210 7.0 17.4 0.02 0.04 0.04 84 1008.6
20260509093007 63 205 7.0 17.4 0.02 0.04 0.04 86 1008.7
20260509092046 63 209 7.0 16.5 0.02 0.04 0.04 84 1008.7
20260509091146 64 208 7.8 20.9 0.00 0.02 0.02 80 1008.8
20260509090245 65 202 8.7 20.9 0.00 0.02 0.02 75 1008.6
20260509085346 66 209 8.7 19.1 0.00 0.02 0.02 75 1008.4
20260509084445 65 208 7.8 24.3 0.01 0.02 0.02 75 1008.2
20260509083545 64 196 7.8 18.2 0.01 0.02 0.02 77 1008.3
20260509082646 64 199 7.8 20.0 0.01 0.02 0.02 77 1008.1
20260509081745 64 204 7.0 20.9 0.02 0.02 0.02 78 1008.1
20260509080845 64 194 7.0 15.6 0.02 0.02 0.02 77 1008.1
20260509075945 64 190 7.0 16.5 0.02 0.02 0.02 79 1008.2
20260509075045 64 194 6.1 18.2 0.02 0.02 0.02 79 1008.3
20260509074206 63 204 6.1 17.4 0.02 0.02 0.02 81 1008.2
20260509073245 62 196 5.2 18.2 0.02 0.02 0.02 82 1008.3
20260509072346 62 201 5.2 17.4 0.02 0.02 0.02 81 1008.3
20260509071445 62 200 5.2 16.5 0.01 0.01 0.01 82 1008.3
20260509070545 62 195 5.2 16.5 0.01 0.01 0.01 82 1008.2
20260509065645 62 194 5.2 13.9 0.00 0.00 0.00 81 1008.3
20260509064745 63 182 5.2 13.9 0.00 0.00 0.00 80 1008.0
20260509063846 63 191 4.3 14.8 0.00 0.00 0.00 81 1008.1
20260509062945 62 193 4.3 13.0 0.00 0.00 0.00 81 1008.1
20260509062107 62 191 4.3 13.9 0.00 0.00 0.00 81 1007.9
20260509061206 62 185 4.3 11.3 0.00 0.00 0.00 81 1007.8
20260509060245 62 183 4.3 12.2 0.00 0.00 0.00 81 1007.9
20260509055406 62 192 4.3 11.3 0.00 0.00 0.00 81 1007.9
20260509054445 63 188 3.5 13.0 0.00 0.00 0.00 80 1007.5
20260509053545 63 200 3.5 8.7 0.00 0.00 0.00 79 1007.7
20260509052645 63 203 2.6 8.7 0.00 0.00 0.00 77 1007.7
20260509051806 63 200 1.7 6.1 0.00 0.00 0.00 76 1007.8
20260509050845 63 208 0.9 4.3 0.00 0.00 0.00 75 1007.6
20260509050006 63 218 0.9 3.5 0.00 0.00 0.00 75 1007.4
20260509045045 63 188 0.9 2.6 0.00 0.00 0.00 74 1007.4
20260509044145 63 194 0.9 3.5 0.00 0.00 0.00 74 1007.4
20260509043245 63 198 0.0 3.5 0.00 0.00 0.00 73 1007.6
20260509042345 63 189 0.0 1.7 0.00 0.00 0.00 72 1007.7
20260509041445 63 144 0.0 1.7 0.00 0.00 0.00 72 1007.7
20260509040545 63 126 0.0 1.7 0.00 0.00 0.00 72 1007.7
20260509035645 63 119 0.0 0.9 0.00 0.00 0.00 71 1007.6
20260509034745 63 119 0.9 1.7 0.00 0.00 0.00 71 1007.6
20260509033845 63 131 0.9 4.3 0.00 0.00 0.00 71 1007.6
20260509032945 63 167 0.0 2.6 0.00 0.00 0.00 70 1007.7
20260509032045 63 169 0.9 1.7 0.00 0.00 0.00 70 1007.9
20260509031144 63 143 0.9 3.5 0.00 0.00 0.00 71 1007.7
20260509030244 63 165 0.9 4.3 0.00 0.00 0.00 71 1008.0
20260509025344 63 140 1.7 4.3 0.00 0.00 0.00 71 1008.0
20260509024444 63 156 0.9 6.1 0.00 0.00 0.00 71 1008.0
20260509023544 63 176 0.9 3.5 0.00 0.00 0.00 71 1008.1
20260509022644 63 177 0.9 4.3 0.00 0.00 0.00 71 1008.2
20260509021805 63 205 1.7 4.3 0.00 0.00 0.00 70 1008.2